Location: Herm
(49.4830°N, 2.4500°W)
Time: 09:06:07
(UTC+01:00)

OTV 5 (USA 277) - Visible Passes

Search period start: 21 October 2019 00:00
Search period end: 30 October 2019 23:00
Orbit: 310 x 324 km, 54.5° (Epoch: 17 October)

Date Brightness Start Highest point End Pass type
(mag) Time Alt. Az. Time Alt. Az. Time Alt. Az.
28 Oct ? 18:38:25 10° S 18:38:40 11° S 18:38:40 11° S visible
29 Oct ? 18:52:07 10° SSW 18:53:10 19° SSW 18:53:10 19° SSW visible
30 Oct ? 17:34:15 10° SSE 17:35:16 12° SE 17:36:18 10° ESE visible
30 Oct ? 19:06:24 10° WSW 19:07:33 22° WSW 19:07:33 22° WSW visible
